Location: ???????
(54.9996°N, 37.9529°E)
Time: 18:37:29
(UTC+00:00)

Envisat - Visible Passes

Search period start: 23 June 2024 00:00
Search period end: 03 July 2024 00:00
Orbit: 762 x 764 km, 98.3° (Epoch: 23 June)

Date Brightness Start Highest point End Pass type
(mag) Time Alt. Az. Time Alt. Az. Time Alt. Az.
23 Jun 5.1 23:44:28 10° NE 23:48:26 22° E 23:52:23 10° SE visible
24 Jun 5.6 23:08:40 10° ENE 23:10:29 12° E 23:12:17 10° ESE visible
26 Jun 5.4 23:31:39 10° NE 23:35:08 18° E 23:38:34 10° SE visible
28 Jun 4.8 23:55:20 10° NE 23:59:39 27° E 00:03:56 10° SSE visible
29 Jun 5.5 23:19:00 10° NE 23:21:46 15° E 23:24:32 10° ESE visible
01 Jul 5.1 23:42:26 10° NE 23:46:21 22° E 23:50:15 10° SE visible
02 Jul 5.6 23:06:45 10° ENE 23:08:23 11° E 23:10:02 10° E visible
